Weather in Boldyrevka

Russia / Amur Oblast     50°13′29″N   129°29′43″E
temp.,
°C
wind,
m/s
gust,
m/s
humid.,
%
clouds,
%
prec.,
mm/h
press.,
hPa
HPBL,
m
15 april, thu
thu1500:00−5sw225185 0.0 100915
03:00−6wsw225876 0.0 101015
06:00−6wsw11595 0.0 101010
09:00+1ese01355 0.0 1011461
12:00+4w23280 0.0 10111752
15:00+6w2325100 0.0 10101879
18:00+5nne1132100 0.0 101124
21:00+1e2347100 0.0 101355
16 april, fri
fri1600:00+1e3752100 0.0 1012137
03:00+1ene4850100 0.0 1011199
06:00−1e51187100 1.3 1011412
09:000ene61394100 3.8 1010592
12:00+4e6878100 0.6 1009799
15:00+8ene6862100 0.6 1007984
18:00+6ne6107097 0.1 1007452
21:00+4ne61182100 0.1 1009544
17 april, sat
sat1700:00+3ene51088100 0.0 1009417
03:00+3ene4888100 0.0 1009258
06:00+2ne4791100 0.0 1010380
09:00+3nne3489100 0.1 1011394
12:00+3n2396100 0.4 1012431
15:00+6n237887 0.4 1011616
18:00+8nw126571 0.0 1011346
21:00+5w117658 0.0 101211
18 april, sun
sun1800:00+2w22895 0.0 101314
03:00+1sw22903 0.0 101210
06:00+1ssw22920 0.0 101223
09:00+7ssw34630 0.0 1012505
12:00+12ssw44410 0.0 10101237
15:00+14wsw34315 0.0 10081511
18:00+13w23395 0.0 1008694
21:00+9n01555 0.0 100910
19 april, mon
mon1900:00+7n226196 0.0 101011
03:00+5n3777100 0.0 1011138
06:00+3nne3775100 0.0 1012165
09:00+9ne125166 0.0 1011258
12:00+15wsw33365 0.0 1010930
15:00+17wsw55330 0.0 10081650
18:00+16wsw46394 0.0 10071175
21:00+9nnw9147226 0.3 1010616